Showing default

SECOR 4 (EGRS 4), 1315

Orbit data source: Space-Track

SECOR 4 (EGRS 4), 1315 is an American payload satellite in LEO that was launched on Sat, 03 Apr 1965 UTC via an ATLAS SLV-3 AGENA D launch vehicle from the Air Force Western Test Range (AFWTR). Payload-class satellites include a variety of spacecraft equipped with specific instruments for various scientific and technological missions. These include communications satellites like Starlink; space stations such as the ISS; scientific satellites like the Hubble; Earth observation satellites from companies like Planet Labs, Umbra, and HawkEye 360; GPS; miniature CubeSats for education and research; and military/defense satellites.

Loading next visibility...
Identifier
1315, 1965-027B
Orbit
LEO
Country
Flag of USUS
Related business
Manufacturer
ITT
Mission
Defense Geodetic
Bus & Motor
SECOR, Unknown motor
Mass
18 kg wet, 18 kg dry
Launch date (UTC)
1965-04-03 (60 years ago)
Launch vehicle
ATLAS SLV-3 AGENA D
Launch site
Air Force Western Test Range (AFWTR)
Object type
Payload
Rocket body
Debris
Shape & HBR
Box, 0.2 m
Radar Cross Section
0.105 m², Medium (>0.1 m² and < 1m²)

Expand to show TLE details & history
Last TLE update: 16 hours ago

TLE from 16 hours ago
0 SECOR 4 (EGRS 4)
1 01315U 65027B   25261.25389803 -.00000050  00000-0 -21013-3 0  9991
2 01315  90.2509   9.4215 0030953 187.3382 200.7495 12.92659654851796
Epoch: 2025-09-18T06:05Z
TLE epoch observation values (Epoch: 2025-09-18T06:05:36.789Z)
Latitude
27.99991°
Longitude
-79.53267°
Altitude
1,316.631 km
Speed
7.191 km/s
True Right ascension
00h 37m 09s
True Declination
27° 52' 05"
Sunlit
Object was in full shadow at epoch
Visualization orbit readout
Latitude
Unknown
Longitude
Unknown
Altitude
Unknown
Speed
Unknown
Apparent Right ascension
Unknown
Apparent Declination
Unknown
Sunlit
N/A
Visualization observer readout
Local Sidereal Time
14:50:43
Azimuth
Unknown
Elevation
Unknown
Doppler factor
Unknown
Orbital elements
Apogee altitude
1,311.85 km
Perigee altitude
1,264.391 km
Semi-major axis
7,666.257 km
Eccentricity
0.0031
Inclination
90.2509°
RAAN
9.4215°
Arg. of periapsis
187.3382°
True anomaly
200.62429°
Mean anomaly
200.7495°
Eccentric anomaly
200.68685°
Mean motion
3.23346 °/min
Orbital period
111.34 mins
BSTAR
-0.00021013
Loading maneuver chart data...
Computing Atmospheric mass density...
Loading historical data...
Loading historical data...
Loading historical data...
Loading historical data...
Loading historical data...
Loading historical data...
Loading historical data...

Documentation

Showing up to 5 results
|